User: anonymous   Login
Location: ??????
(30.5519°N, 47.7720°E)
Time: 05:07:48
(UTC+00:00)
Language:

Cosmos 1809 Rocket - Orbit

View from above orbital plane
View from above orbital plane
View from above satellite
View from above satellite

Ground track
Ground track

The orbit data is extracted from the following two-line orbital elements,

1 17242U 86101B   21101.78440576  .00000025  00000-0  94600-5 0  9999
2 17242  82.5339 354.5382 0016356 100.8671 321.5452 13.83296137732267
Epoch (UTC): 11 April 2021 18:49:32
Eccentricity: 0.0016356
inclination: 82.5339°
perigee height: 940 km
apogee height: 964 km
right ascension of ascending node: 354.5382°
argument of perigee: 100.8671°
revolutions per day: 13.83296137
mean anomaly at epoch: 321.5452°
orbit number at epoch: 73226

The dashed part of the orbit path shows where the satellite is in the earth's shadow,  

DLR